Tracking 27124 objects as of 31-Mar-2023
HD Live streaming from Space Station
objects crossing your sky now

SL-16 DEB

Track SL-16 DEB now!
10-day predictions


NORAD ID: 36031
Int'l Code: 1996-051N
Perigee: 659.1 km
Apogee: 669.1 km
Inclination: 70.8 °
Period: 97.9 minutes
Semi major axis: 7035 km
RCS: 0.0057 m2 (small)
Launch date: September 4, 1996
Source: Commonwealth of Independent States (former USSR) (CIS)
Launch site: TYURATAM MISSILE AND SPACE COMPLEX (TTMTR)

Note: This is SATELLITE DEBRIS
Your satellite tracking list
Your tracking list is empty




NASA's NSSDC Master Catalog

Two Line Element Set (TLE):
1 36031U 96051N   23088.92246612  .00092965  00000-0  14836-1 0  9991
2 36031  70.8345 262.9837 0007134  30.8146  92.8992 14.71281852704869
Source of the keplerian elements: AFSPC